Location: *
(18.5200°S, 46.4500°E)
Time: 21:53:20
(UTC+00:00)

SL-16 R/B - Pass Details

Date: 19 July 2019
Orbit: 843 x 846 km, 71.0° (Epoch: 23 August)

Event Time Altitude Azimuth Distance (km) Brightness Sun altitude
Rises 15:52:54 0° 201° (SSW) 3,415 5.4 -18.3°
Reaches altitude 10° 15:55:22 10° 203° (SSW) 2,475 4.7 -18.8°
Maximum altitude 16:01:00 68° 285° (WNW) 906 2.5 -20.1°
Drops below altitude 10° 16:06:36 10° 8° (N) 2,451 4.7 -21.4°
Sets 16:09:02 0° 10° (N) 3,380 5.4 -21.9°
